COSMOS 252 DEB, 3551

Orbit data source: Space-Track

COSMOS 252 DEB, 3551 is space debris in LEO originally from a launch on Fri, 01 Nov 1968 UTC launched from the Tyuratam Missile And Space Complex (TTMTR). Debris objects in space refer to the collection of defunct objects orbiting the Earth. Examples of debris include non-operational satellites, rocket bodies, and fragments generated from explosions, collisions, or faulty payload assembly.

Loading next visibility...
Identifier
3551, 1968-097D
Orbit
LEO
Country
Flag of CISCIS
Related business
Manufacturer
Unknown
Mission
Spacecraft
Bus & Motor
Unknown
Mass
Unknown
Launch date (UTC)
1968-11-01 (57 years ago)
Launch vehicle
Unknown
Launch site
Tyuratam Missile And Space Complex (TTMTR)
Object type
Payload
Rocket body
Debris
Shape & HBR
Unknown
Radar Cross Section
Small (<0.1 m²)

Expand to show TLE details & history
Last TLE update: 14 hours ago

TLE from 14 hours ago
0 COSMOS 252 DEB
1 03551U 68097D   25261.16520745  .00005256  00000-0  11060-2 0  9998
2 03551  62.2812 156.1644 0633203  82.7895 284.4639 13.79345279770998
Epoch: 2025-09-18T03:57Z
TLE epoch observation values (Epoch: 2025-09-18T03:57:53.923Z)
Latitude
-0°
Longitude
99.359°
Altitude
879.956 km
Speed
7.457 km/s
True Right ascension
10h 24m 39s
True Declination
0° 00' 00"
Sunlit
Object was in daylight at epoch
Visualization orbit readout
Latitude
Unknown
Longitude
Unknown
Altitude
Unknown
Speed
Unknown
Apparent Right ascension
Unknown
Apparent Declination
Unknown
Sunlit
N/A
Visualization observer readout
Local Sidereal Time
11:17:37
Azimuth
Unknown
Elevation
Unknown
Doppler factor
Unknown
Orbital elements
Apogee altitude
1,430.135 km
Perigee altitude
500.176 km
Semi-major axis
7,343.293 km
Eccentricity
0.06332
Inclination
62.2812°
RAAN
156.1644°
Arg. of periapsis
82.7895°
True anomaly
277.31496°
Mean anomaly
284.4639°
Eccentric anomaly
280.90138°
Mean motion
3.44911 °/min
Orbital period
104.37 mins
BSTAR
0.001106
Loading maneuver chart data...
Computing Atmospheric mass density...

Documentation

Showing up to 5 results
|